{"data":{"norad_id":68296,"intl_designator":"2026-057C","name":"STARLINK-37142","alt_names":[],"object_type":"PAYLOAD","status":"ACTIVE","operator":null,"country":"US","launch_date":"2026-03-20","launch_site_code":"AFWTR","launch_vehicle":null,"mission":null,"orbit_class":"UNKNOWN","rcs_meters":null,"size_class":null,"mass_kg":null,"dimensions":null,"purposes":["comms"],"wikipedia_slug":null,"has_3d_model":false,"image_url":null,"decayed_at":null,"tle_current":{"epoch":"2026-09-20T03:40:00.994656Z","epoch_age_seconds":81826,"freshness":"FRESH","line1":"1 68296U 26057C   26263.15278929  .00024320  00000+0  75283-3 0  9991","line2":"2 68296  97.2852  28.6060 0000975  75.7272 284.4079 15.33461789 28460","mean_motion":15.33461789,"eccentricity":9.75e-5,"inclination_deg":97.2852,"raan_deg":28.606,"arg_perigee_deg":75.7272,"mean_anomaly_deg":284.4079,"bstar":0.00075283,"rev_number":2846,"period_min":93.905176531269,"perigee_km":464.82596873524,"apogee_km":466.16047662866,"semimajor_km":6843.6302226819,"source":"CELESTRAK","updated_at":"2026-09-20T09:00:43.853485Z"}}}